[[[{"header":{"parameterUnit":"kt","parameterCategory":2,"dx":1,"dy":1,"la1":30.253999710083008,"la2":30.299108505249023,"lo1":-89.0895004272461,"lo2":-89.04439544677734,"nx":28,"ny":28,"refTime":"2022-10-03T21:00:00:Z","depth":0,"parameterNumber":1,"parameterNumberName":"U-component_of_WINDS"},"data":[-3.5006,-3.4968,-3.4922,-3.4857,-3.4804,-3.4749,-3.4714,-3.4664,-3.4611,-3.4537,-3.4486,-3.4433,-3.4358,-3.4283,-3.4222,-3.4198,-3.4175,-3.4195,-3.4163,-3.412,-3.4111,-3.4102,-3.4108,-3.4191,-3.4192,-3.4214,-3.4214,-3.4214,-3.4974,-3.4922,-3.4875,-3.4797,-3.4755,-3.4708,-3.4641,-3.4607,-3.4559,-3.4494,-3.4442,-3.4373,-3.4311,-3.4227,-3.4158,-3.4135,-3.4106,-3.4119,-3.4118,-3.4107,-3.4059,-3.4067,-3.4143,-3.4143,-3.4143,-3.4143,-3.4143,-3.4143,-3.4902,-3.4882,-3.4809,-3.4757,-3.4705,-3.4653,-3.4624,-3.4561,-3.4512,-3.4438,-3.439,-3.4334,-3.4257,-3.4151,-3.4102,-3.4054,-3.403,-3.4028,-3.4027,-3.4027,-3.4032,-3.4001,-3.404,-3.404,-3.4039,-3.4039,-3.4039,0,-3.4834,-3.4797,-3.475,-3.4688,-3.4647,-3.4594,-3.4537,-3.4518,-3.442,-3.4384,-3.4326,-3.4284,-3.42,-3.4137,-3.4062,-3.4012,-3.3954,-3.3945,-3.3942,-3.3963,-3.399,-3.3971,-3.3893,-3.3943,-3.3942,-3.3942,-3.3941,-3.3941,-3.4755,-3.474,-3.4641,-3.4613,-3.4571,-3.4528,-3.4491,-3.4407,-3.4372,-3.4287,-3.4272,-3.421,-3.4156,-3.4069,-3.3991,-3.3927,-3.3898,-3.3922,-3.3888,-3.3909,-3.3893,-3.3894,-3.389,-3.393,-3.3931,-3.3932,-3.3933,0,-3.4714,-3.464,-3.4599,-3.4502,-3.4477,-3.4463,-3.4378,-3.4354,-3.4295,-3.4252,-3.4237,-3.4143,-3.4087,-3.4005,-3.3924,-3.3882,-3.385,-3.3825,-3.3874,-3.3864,-3.3874,-3.3873,-3.3929,-3.393,-3.3846,-3.3847,-3.3848,0,-3.4616,-3.4598,-3.4486,-3.4467,-3.4442,-3.4359,-3.4336,-3.4283,-3.4218,-3.4184,-3.4109,-3.4078,-3.3979,-3.3935,-3.3873,-3.3833,-3.3819,-3.3783,-3.3766,-3.3788,-3.3792,-3.3765,-3.3759,-3.3735,-3.3735,-3.3734,-3.3734,0,-3.4557,-3.4478,-3.4446,-3.4416,-3.431,-3.4297,-3.4252,-3.4179,-3.4145,-3.4086,-3.4062,-3.4,-3.3965,-3.3917,-3.3839,-3.3819,-3.3789,-3.3745,-3.3752,-3.3754,-3.3748,-3.3749,-3.3822,-3.3734,-3.3734,-3.3734,-3.3734,0,-3.4465,-3.4412,-3.4379,-3.4288,-3.427,-3.425,-3.4184,-3.4148,-3.4077,-3.4038,-3.3991,-3.393,-3.3892,-3.3853,-3.3797,-3.3791,-3.376,-3.3723,-3.3723,-3.3711,-3.3669,-3.3717,-3.3798,-3.3801,-3.3704,-3.3703,-3.3703,0,-3.4415,-3.4364,-3.4292,-3.4262,-3.4227,-3.4144,-3.4119,-3.406,-3.4006,-3.3965,-3.3904,-3.3859,-3.3813,-3.3787,-3.3771,-3.3705,-3.3712,-3.3702,-3.3637,-3.3636,-3.3656,-3.373,-3.3761,-3.379,-3.3699,-3.3699,-3.37,0,-3.4368,-3.4243,-3.4243,-3.4204,-3.4114,-3.4085,-3.4057,-3.3995,-3.3971,-3.3914,-3.3886,-3.3822,-3.3783,-3.3743,-3.3687,-3.3674,-3.3704,-3.3634,-3.3631,-3.3646,-3.3692,-3.3721,-3.3726,-3.3669,-3.3669,-3.367,-3.3697,0,-3.4238,-3.4204,-3.4202,-3.4121,-3.4087,-3.4065,-3.3982,-3.3955,-3.3906,-3.3849,-3.3809,-3.3739,-3.3674,-3.3661,-3.3613,-3.3611,-3.3597,-3.3558,-3.3511,-3.3563,-3.3569,-3.3572,-3.3509,-3.3507,-3.3505,-3.3504,0,0,-3.4207,-3.4157,-3.408,-3.4052,-3.4017,-3.3933,-3.3917,-3.3873,-3.3787,-3.3763,-3.3738,-3.3638,-3.3584,-3.3542,-3.3552,-3.3527,-3.3517,-3.3504,-3.354,-3.3545,-3.3548,-3.3557,-3.3561,-3.3501,-3.3501,-3.35,-3.35,0,-3.4142,-3.4093,-3.4081,-3.4032,-3.3958,-3.39,-3.3897,-3.3808,-3.3772,-3.3734,-3.3662,-3.3628,-3.3553,-3.3502,-3.3466,-3.3507,-3.3454,-3.3495,-3.3543,-3.3528,-3.3534,-3.354,-3.355,-3.3555,-3.3496,-3.3496,-3.3496,0,-3.4077,-3.4014,-3.4,-3.3921,-3.3871,-3.3838,-3.377,-3.3739,-3.3712,-3.3619,-3.3583,-3.3533,-3.3459,-3.3434,-3.3419,-3.3395,-3.34,-3.3386,-3.3393,-3.3389,-3.3369,-3.3377,-3.3384,-3.329,-3.329,-3.3289,0,0,-3.4032,-3.4001,-3.3906,-3.3901,-3.3875,-3.3789,-3.3764,-3.3711,-3.3649,-3.3625,-3.356,-3.35,-3.3454,-3.3426,-3.338,-3.3365,-3.334,-3.3364,-3.3373,-3.3382,-3.3382,-3.3365,-3.3373,-3.3288,-3.3288,-3.3288,0,0,-3.401,-3.39,-3.3862,-3.3846,-3.379,-3.3694,-3.3693,-3.3643,-3.3593,-3.3586,-3.3495,-3.3475,-3.345,-3.3405,-3.3396,-3.3361,-3.3317,-3.3318,-3.3392,-3.3403,-3.3412,-3.3422,-3.3314,0,0,0,0,0,-3.3901,-3.3913,-3.388,-3.3865,-3.3765,-3.3713,-3.37,-3.3626,-3.3596,-3.3596,-3.3533,-3.3479,-3.338,-3.337,-3.3355,-3.3365,-3.327,-3.3273,-3.3276,-3.3367,-3.338,-3.339,0,0,0,0,0,0,-3.3894,-3.3876,-3.3879,-3.3787,-3.3763,-3.3712,-3.3645,-3.3625,-3.3594,-3.3584,-3.3493,-3.3476,-3.3412,-3.3372,-3.336,-3.3371,-3.3318,-3.3271,-3.3274,-3.3276,-3.3371,-3.3382,-3.339,0,0,0,0,0,-3.3889,-3.3874,-3.3734,-3.3786,-3.3765,-3.3671,-3.3644,-3.3626,-3.3601,-3.3505,-3.3487,-3.3549,-3.3414,-3.3399,-3.3365,-3.3379,-3.3326,-3.3322,-3.3273,-3.3275,-3.3277,-3.3376,0,0,0,0,0,0,-3.3885,-3.3857,-3.3728,-3.3719,-3.3776,-3.3672,-3.3653,-3.3628,-3.3522,-3.3504,-3.3556,-3.355,-3.3416,-3.3403,-3.3392,-3.3386,-3.3332,-3.3328,-3.3325,-3.3275,-3.3276,-3.3278,0,0,0,0,0,0,-3.3864,-3.385,-3.3723,-3.3715,-3.3705,-3.3673,-3.3657,-3.3618,-3.3522,-3.3579,-3.357,-3.3554,-3.3432,-3.3407,-3.3398,-3.334,-3.3337,-3.3333,-3.333,-3.3329,-3.3276,-3.3277,0,0,0,0,0,0,-3.3857,-3.3845,-3.3717,-3.3709,-3.37,-3.3592,-3.3637,-3.3539,-3.3518,-3.3585,-3.3513,-3.3511,-3.3437,-3.3426,-3.3402,-3.3349,-3.3343,-3.3337,-3.3334,-3.3332,-3.3331,0,0,0,0,0,0,0,-3.3851,-3.3951,-3.3782,-3.3704,-3.3695,-3.3636,-3.3633,-3.3631,-3.3517,-3.3515,-3.3514,-3.3512,-3.3361,-3.3356,-3.3352,-3.3356,0,0,-3.3338,-3.3336,0,0,0,0,0,0,0,0,-3.3955,-3.3952,-3.3782,-3.378,-3.3778,-3.3635,-3.3633,-3.3631,-3.3517,-3.3515,-3.3514,-3.3513,-3.336,-3.3356,-3.3352,0,0,0,0,0,0,0,0,0,0,0,0,0,0,0,-3.3781,-3.378,0,-3.3635,-3.3633,-3.3632,-3.3517,-3.3515,-3.3514,-3.3513,-3.3359,-3.3356,-3.3353,0,0,0,0,0,0,0,0,0,0,0,0,0,0,0,0,0,0,0,0,0,0,0,0,0,0,0,0,0,0,0,0,0,0,0,0,0,0,0,0,0,0,0,0,0,0,0,0,0,0,0,0,0,0,0,0,0,0,0,0,0,0,0,0,0,0,0,0,0]}],[{"header":{"parameterUnit":"kt","parameterCategory":2,"dx":1,"dy":1,"la1":30.253999710083008,"la2":30.299108505249023,"lo1":-89.0895004272461,"lo2":-89.04439544677734,"nx":28,"ny":28,"refTime":"2022-10-03T21:00:00:Z","depth":0,"parameterNumber":2,"parameterNumberName":"V-component_of_WINDS"},"data":[-5.9707,-5.9671,-5.9659,-5.9611,-5.9591,-5.9555,-5.9537,-5.9512,-5.9488,-5.944,-5.9409,-5.9389,-5.9357,-5.9313,-5.9275,-5.9266,-5.925,-5.9247,-5.9236,-5.9267,-5.927,-5.9273,-5.9282,-5.9244,-5.9244,-5.9205,-5.9205,-5.9204,-5.9731,-5.9713,-5.9685,-5.9648,-5.9623,-5.9619,-5.9588,-5.9566,-5.9531,-5.9502,-5.9471,-5.9425,-5.9386,-5.9353,-5.9311,-5.9289,-5.9282,-5.9278,-5.9278,-5.9272,-5.9305,-5.9315,-5.9285,-5.9285,-5.9285,-5.9285,-5.9285,-5.9285,-5.9771,-5.975,-5.9721,-5.969,-5.9668,-5.9643,-5.9618,-5.9597,-5.9566,-5.9525,-5.9514,-5.9473,-5.9437,-5.9379,-5.9355,-5.9319,-5.932,-5.931,-5.9306,-5.9303,-5.9302,-5.9358,-5.9312,-5.9312,-5.9312,-5.9312,-5.9312,0,-5.9795,-5.9787,-5.9759,-5.9727,-5.9703,-5.9676,-5.9648,-5.9633,-5.9606,-5.9581,-5.9543,-5.9517,-5.9466,-5.9425,-5.9382,-5.9358,-5.9345,-5.9343,-5.9335,-5.9339,-5.9349,-5.9341,-5.9394,-5.9343,-5.9344,-5.9344,-5.9344,-5.9344,-5.9832,-5.9809,-5.9773,-5.9755,-5.9737,-5.9707,-5.9686,-5.9665,-5.9642,-5.9602,-5.9582,-5.9542,-5.9509,-5.9446,-5.9414,-5.9374,-5.9366,-5.9349,-5.936,-5.9366,-5.9363,-5.9364,-5.936,-5.9346,-5.9346,-5.9346,-5.9345,0,-5.9853,-5.9834,-5.9794,-5.976,-5.975,-5.9726,-5.9694,-5.967,-5.965,-5.9613,-5.9603,-5.9571,-5.9531,-5.9503,-5.9451,-5.9436,-5.9388,-5.9384,-5.9401,-5.9398,-5.9377,-5.9378,-5.932,-5.931,-5.9351,-5.9351,-5.935,0,-5.9876,-5.9846,-5.9818,-5.9795,-5.9761,-5.9741,-5.9706,-5.9686,-5.9657,-5.9627,-5.9613,-5.9585,-5.9553,-5.952,-5.9499,-5.9455,-5.9446,-5.9431,-5.9425,-5.9431,-5.9433,-5.9414,-5.9415,-5.9416,-5.9417,-5.9417,-5.9417,0,-5.9909,-5.986,-5.9824,-5.9809,-5.9768,-5.975,-5.9731,-5.9699,-5.9677,-5.9644,-5.9628,-5.959,-5.9568,-5.9537,-5.9511,-5.9519,-5.9457,-5.9463,-5.9442,-5.9442,-5.9427,-5.9428,-5.9386,-5.9418,-5.9418,-5.9418,-5.9418,0,-5.9923,-5.9895,-5.9847,-5.9812,-5.9799,-5.9775,-5.9738,-5.9711,-5.9677,-5.9663,-5.9636,-5.9621,-5.9583,-5.9591,-5.9536,-5.9555,-5.9533,-5.9516,-5.9514,-5.9506,-5.9514,-5.9492,-5.9457,-5.9451,-5.9502,-5.9503,-5.9503,0,-5.9966,-5.9913,-5.9896,-5.9849,-5.9821,-5.9807,-5.9779,-5.975,-5.973,-5.9699,-5.9676,-5.964,-5.964,-5.9625,-5.9602,-5.9574,-5.955,-5.9577,-5.9526,-5.9524,-5.9534,-5.9503,-5.9504,-5.9469,-5.9512,-5.9511,-5.951,0,-5.9997,-5.995,-5.9942,-5.9924,-5.9885,-5.986,-5.9828,-5.9791,-5.9772,-5.9741,-5.9711,-5.9661,-5.9658,-5.9632,-5.9615,-5.9593,-5.9565,-5.9592,-5.959,-5.9586,-5.9515,-5.9516,-5.951,-5.9558,-5.9557,-5.9556,-5.9517,0,-6.0018,-5.9989,-5.9971,-5.9931,-5.9908,-5.9878,-5.9852,-5.9831,-5.9819,-5.9799,-5.9754,-5.9721,-5.9678,-5.9665,-5.9651,-5.961,-5.9611,-5.9609,-5.9611,-5.9592,-5.9578,-5.9572,-5.9634,-5.9634,-5.9634,-5.9634,0,0,-6.0063,-6.0021,-6.0003,-5.9973,-5.9953,-5.9939,-5.9908,-5.9885,-5.9839,-5.9824,-5.9827,-5.975,-5.9722,-5.967,-5.9662,-5.9645,-5.9634,-5.9641,-5.9602,-5.9598,-5.9595,-5.9581,-5.9576,-5.9634,-5.9634,-5.9634,-5.9634,0,-6.0066,-6.0045,-6.0018,-5.9995,-5.996,-5.9941,-5.9934,-5.9896,-5.9881,-5.9839,-5.9824,-5.9793,-5.9733,-5.9705,-5.9682,-5.9648,-5.9636,-5.9637,-5.9629,-5.9602,-5.9599,-5.9596,-5.9581,-5.9577,-5.9634,-5.9634,-5.9634,0,-6.0089,-6.0064,-6.0049,-6.0004,-5.998,-5.995,-5.9949,-5.9918,-5.9894,-5.9875,-5.9833,-5.981,-5.9769,-5.9725,-5.9703,-5.9704,-5.9639,-5.9655,-5.9655,-5.965,-5.9623,-5.9619,-5.9616,-5.9661,-5.9662,-5.9662,0,0,-6.0095,-6.0068,-6.0033,-6.0003,-5.9989,-5.996,-5.9941,-5.9927,-5.9894,-5.9881,-5.9851,-5.9817,-5.9781,-5.9758,-5.9723,-5.9678,-5.9666,-5.966,-5.9658,-5.9657,-5.9653,-5.9625,-5.9622,-5.9663,-5.9663,-5.9663,0,0,-6.0096,-6.0055,-6.005,-6.0012,-5.9984,-5.9944,-5.9925,-5.9916,-5.9883,-5.9883,-5.9853,-5.9843,-5.9801,-5.9777,-5.9793,-5.9722,-5.9726,-5.9722,-5.9739,-5.9737,-5.9735,-5.974,-5.9783,0,0,0,0,0,-6.0086,-6.0061,-6.0057,-6.0047,-5.9988,-5.9947,-5.9939,-5.9917,-5.9921,-5.9906,-5.988,-5.9869,-5.978,-5.9793,-5.9781,-5.9763,-5.9674,-5.9672,-5.967,-5.9681,-5.968,-5.9678,0,0,0,0,0,0,-6.0081,-6.0069,-6.0057,-6.0017,-6.0004,-5.9948,-5.9949,-5.9942,-5.9922,-5.9921,-5.9874,-5.9867,-5.9845,-5.9797,-5.9787,-5.977,-5.9786,-5.9673,-5.9671,-5.967,-5.9681,-5.9679,-5.9678,0,0,0,0,0,-6.0078,-6.0068,-5.9981,-6.0017,-6.0005,-5.997,-5.995,-5.9944,-5.9928,-5.9886,-5.9879,-5.9913,-5.9845,-5.9835,-5.9791,-5.9776,-5.9793,-5.9789,-5.9672,-5.9671,-5.967,-5.968,0,0,0,0,0,0,-6.0076,-6.0061,-5.9978,-5.9974,-6.0025,-5.9973,-5.9964,-5.9946,-5.9894,-5.9886,-5.9923,-5.9923,-5.9845,-5.9837,-5.9829,-5.9779,-5.9799,-5.9795,-5.9793,-5.9671,-5.967,-5.9669,0,0,0,0,0,0,-6.0066,-6.0058,-5.9976,-5.9988,-5.9984,-5.9975,-5.9968,-5.9926,-5.9893,-5.9933,-5.9932,-5.9924,-5.9855,-5.9838,-5.9832,-5.9768,-5.9803,-5.9799,-5.9797,-5.9795,-5.967,-5.9669,0,0,0,0,0,0,-6.0062,-6.0055,-5.9989,-5.9986,-5.9983,-5.993,-5.9938,-5.9878,-5.9908,-5.9936,-5.991,-5.991,-5.9857,-5.985,-5.9834,-5.9773,-5.977,-5.9803,-5.9801,-5.9799,-5.9798,0,0,0,0,0,0,0,-6.0059,-6.0115,-6.0006,-5.9985,-5.9982,-5.9932,-5.993,-5.9929,-5.9908,-5.9909,-5.9909,-5.991,-5.9824,-5.982,-5.9816,-5.9778,0,0,-5.9803,-5.9802,0,0,0,0,0,0,0,0,-6.0118,-6.0116,-6.0005,-6.0005,-6.0004,-5.9932,-5.993,-5.9929,-5.9908,-5.9909,-5.9909,-5.991,-5.9823,-5.982,-5.9816,0,0,0,0,0,0,0,0,0,0,0,0,0,0,0,-6.0005,-6.0005,0,-5.9931,-5.993,-5.993,-5.9908,-5.9909,-5.9909,-5.991,-5.9822,-5.9819,-5.9817,0,0,0,0,0,0,0,0,0,0,0,0,0,0,0,0,0,0,0,0,0,0,0,0,0,0,0,0,0,0,0,0,0,0,0,0,0,0,0,0,0,0,0,0,0,0,0,0,0,0,0,0,0,0,0,0,0,0,0,0,0,0,0,0,0,0,0,0,0]}]]]